Content
SEND FEEDBACK

Daily
Averages
Monthly
Summary
Russia

NOVOKUZNETSK, RUSSIA


Home > Europe > Russia
Elevation: 1010 feet     Latitude: 53 44N     Longitude: 087 11E

WEATHER
 
SELECT A DAY
Number of Records: 160,879;   Date Range: 1/29/98 - 9/22/14
 
SHARE

PRINT THIS DATA

[ ← Previous Day ]
WEATHER ALMANAC - JANUARY 31, 2013
[ Next Day → ]
[ °C ]   °F
Weather ElementAverageHighLow
Temperature4.6 °F9 °F (5:00 pm)1.4 °F (12:00 pm)
Dewpoint-0.5 °F1.4 °F (2:30 pm)-4 °F (12:00 pm)
Humidity78.2 %85 % (2:00 am)57 % (5:00 pm)
Barometer30.41 in30.61 in (8:00 pm)30.30 in (12:30 am)
Wind Speed8.6 mph13.4 mph (9:00 am)
Weather ElementAverage
Visibility5.5 mi
Wind DirectionS (180.4 °)

Weather ElementTotal
Precipitation---
Heating Degree Days59.8 (Base 65)
Averaged from 55 records on January 31, 2013
WEATHER CONDITIONS BREAKOUT
WIND DIRECTION BREAKOUT
WEATHER BY HOUR - JANUARY 31, 2013
[ °C ]   °F
Local TimeTemperatureDewpointHumidityBarometerVisibilityWind DirectionWind SpeedGust SpeedPrecipitationEventsConditions
12:30 AM3.2 °F-2.2 °F78 %30.30 in3.7 miSSE (150°)6.7 mphSnowLight Snow
1:00 AM3.2 °F-2.2 °F78 %30.30 in6.2 miSSE (150°)8.9 mphSnowLight Snow
1:30 AM3.2 °F-2.2 °F78 %30.30 in4.3 miSE (140°)6.7 mphSnowLight Snow
2:00 AM2.0 °F-1.0 °F81 %30.45 in6.0 miSSE (150°)6.7 mphSnowLight Snow
2:00 AM3.2 °F-0.4 °F85 %30.30 in5.6 miSE (130°)6.7 mphSnowLight Snow
2:30 AM3.2 °F-0.4 °F85 %30.30 inSSE (150°)6.7 mphSnowLight Snow
3:00 AM3.2 °F-0.4 °F85 %30.30 inSSE (150°)6.7 mphSnowLight Snow
3:30 AM3.2 °F-0.4 °F85 %30.30 in3.1 miSSE (160°)4.5 mphSnowLight Snow
4:00 AM3.2 °F-0.4 °F85 %30.33 in3.7 miSouth (170°)6.7 mphSnowLight Snow
4:30 AM3.2 °F-0.4 °F85 %30.33 in4.3 miVariable4.5 mphSnowLight Snow
5:00 AM4.0 °F0.0 °F77 %30.46 in6.0 miSouth (190°)4.5 mphSnowLight Snow
5:00 AM3.2 °F-0.4 °F85 %30.33 in5.0 miSouth (190°)6.7 mphSnowLight Snow
5:30 AM3.2 °F-0.4 °F85 %30.33 in3.7 miSouth (180°)6.7 mphSnowLight Snow
6:00 AM3.2 °F-0.4 °F85 %30.33 in5.6 miSouth (190°)6.7 mphSnowLight Snow
6:30 AM3.2 °F-0.4 °F85 %30.33 in6.2 miSouth (180°)6.7 mphSnowLight Snow
7:00 AM3.2 °F-0.4 °F85 %30.33 in6.2 miSouth (190°)6.7 mphSnowLight Snow
7:30 AM5.0 °F-0.4 °F78 %30.33 in5.6 miSSW (200°)8.9 mphSnowLight Snow
8:00 AM4.0 °F-1.0 °F70 %30.48 in6.0 miSW (220°)8.9 mphSnowLight Snow
8:00 AM3.2 °F-0.4 °F85 %30.33 in6.2 miSSW (210°)8.9 mphSnowLight Snow
8:30 AM3.2 °F-0.4 °F85 %30.36 in6.2 miSSW (210°)11.2 mphSnowLight Snow
9:00 AM5.0 °F-0.4 °F78 %30.36 in6.2 miSSW (210°)13.4 mphSnowLight Snow
9:30 AM5.0 °F-0.4 °F78 %30.36 in5.6 miSSW (210°)13.4 mphSnowLight Snow
10:00 AM5.0 °F-0.4 °F78 %30.36 in6.2 miSSW (200°)13.4 mphSnowLight Snow
10:30 AM3.2 °F-0.4 °F85 %30.39 in6.2 miSSW (210°)11.2 mphOvercast
11:00 AM4.0 °F-1.0 °F71 %30.51 in6.0 miSSW (200°)11.2 mphSnowLight Snow
11:00 AM3.2 °F-2.2 °F78 %30.39 in6.2 miSSW (210°)11.2 mphMostly Cloudy
11:30 AM3.2 °F-2.2 °F78 %30.39 in5.6 miSSW (210°)11.2 mphMostly Cloudy
12:00 PM1.4 °F-4.0 °F78 %30.39 in6.2 miSSW (200°)11.2 mphMostly Cloudy
12:30 PM1.4 °F-4.0 °F78 %30.39 in5.0 miSouth (190°)8.9 mphSnowLight Snow
1:00 PM5.0 °F-0.4 °F78 %30.42 in5.0 miSSW (200°)8.9 mphSnowLight Snow
1:30 PM5.0 °F-0.4 °F78 %30.42 in5.6 miSouth (190°)8.9 mphSnowLight Snow
2:00 PM6.0 °F0.0 °F65 %30.53 in6.0 miSouth (190°)8.9 mphSnowLight Snow
2:00 PM6.8 °F-0.4 °F72 %30.42 in5.6 miSSW (200°)8.9 mphSnowLight Snow
2:30 PM6.8 °F1.4 °F79 %30.42 in5.6 miSSW (200°)11.2 mphOvercast
3:00 PM6.8 °F1.4 °F79 %30.42 in5.6 miSSW (210°)8.9 mphOvercast
3:30 PM6.8 °F1.4 °F79 %30.42 in4.3 miSSW (200°)11.2 mphOvercast
4:00 PM8.6 °F1.4 °F73 %30.42 in5.0 miSSW (210°)8.9 mphOvercast
4:30 PM8.6 °F1.4 °F73 %30.42 in5.6 miSouth (190°)6.7 mphOvercast
5:00 PM9.0 °F1.0 °F57 %30.56 in6.0 miSSW (200°)11.2 mphPartly Cloudy
5:00 PM8.6 °F1.4 °F73 %30.45 in4.3 miSSW (200°)11.2 mphOvercast
5:30 PM8.6 °F1.4 °F73 %30.45 in3.7 miSSW (210°)11.2 mphOvercast
6:00 PM8.6 °F1.4 °F73 %30.45 in6.2 miSSW (200°)11.2 mphOvercast
6:30 PM6.8 °F-0.4 °F72 %30.45 in6.2 miSSW (200°)11.2 mphOvercast
7:00 PM5.0 °F-2.2 °F72 %30.45 in6.2 miSSW (200°)8.9 mphMostly Cloudy
7:30 PM3.2 °F-2.2 °F78 %30.48 in6.2 miSouth (190°)6.7 mphMostly Cloudy
8:00 PM3.0 °F-3.0 °F65 %30.61 in6.0 miSouth (190°)8.9 mphPartly Cloudy
8:00 PM3.2 °F-2.2 °F78 %30.48 in6.2 miSouth (190°)8.9 mphMostly Cloudy
8:30 PM3.2 °F-0.4 °F85 %30.48 in5.6 miSouth (190°)8.9 mphSnowLight Snow
9:00 PM3.2 °F-0.4 °F85 %30.48 in6.2 miSouth (180°)6.7 mphOvercast
9:30 PM5.0 °F-0.4 °F78 %30.48 in6.2 miVariable4.5 mphOvercast
10:00 PM5.0 °F-0.4 °F78 %30.48 in6.2 miSouth (180°)6.7 mphSnowLight Snow
10:30 PM5.0 °F1.4 °F85 %30.48 in6.2 miSouth (170°)8.9 mphSnowLight Snow
11:00 PM5.0 °F0.0 °F70 %30.61 in6.0 miSSE (160°)6.7 mphSnowLight Snow
11:00 PM5.0 °F-0.4 °F78 %30.48 inSSE (160°)6.7 mphClear
11:30 PM5.0 °F-0.4 °F78 %30.48 inSSE (160°)6.7 mphClear
Hourly data recorded from UNWW, located miles away from Novokuznetsk, Russia







STORIES FROM OUR PARTNERS